TOURFACTS.DK  
Stats and Facts from Tour de France.

Tour de France 2019 starts in 348 days
  Riders   Stages   Teams   Summits   Yearly  


 
Search by year

After 2018 - Stage 14:
 15000 starters.
  5163 different riders.
  639 teams.
  2246 stages.
  456 restdays.
  441957.60 km.
  5678 abandonnees.


Top 3
GC
Christopher Froome86:20:55
Rigoberto Urán86:21:49
Romain Bardet86:23:15
Climb
Warren Barguil169 pt.
Primoz Roglic80 pt.
Thomas De Gendt64 pt.
Sprint
Michael Matthews359 pt.
André Greipel234 pt.
Edvald Boasson Hagen220 pt.
Youth
Simon Yates86:27:09
Louis Meintjes86:29:15
Emanuel Buchmann86:54:16
Facts from Tour de France 1933
  |   Stages.  |   Stage winners.  |   Days in yellow  |   Average speed.  |   Route.  |   Teams.  |   All riders.  |   Rookies.  |  

  |   Withdrawls.  |   GC.  |   Polka  |   Green  |   White  |   Summits. (In tour)  |   Miscellaneous.  |  

Stage 1 on June 27th. 1933
  
Pick a stage:  1 2 3 4 5 6 7 8 9 10 11 12 13 14 15 16 17 18 19 20 21 22 23
From: Paris    To: LilleDist:262.00 km.

Average speed for all riders in stage:  32,480 km./hr.
    Place:Name:Team:Time:Km/h:
FRAMaurice ArchambaudFRAFrance07:48:45  +  00:00:00=33,536 
FRALéon LouyetTouristes Routiers07:51:17  +  00:02:32=33,356 
BELJean AertsBELBelgium07:51:17  +  00:02:32=33,356 
4 BELGeorges LemaireBELBelgium07:51:17  +  00:02:32=33,356 
5 BELGaston RebryBELBelgium07:51:17  +  00:02:32=33,356 
6 BELEmile DecroixTouristes Routiers07:53:16  +  00:04:31=33,216 
7 FRAGeorges SpeicherFRAFrance07:53:16  +  00:04:31=33,216 
8 GERKurt StöpelDEUGermany-Austria07:53:16  +  00:04:31=33,216 
9 BELJean WautersBELBelgium07:53:16  +  00:04:31=33,216 
10 BELLouis HardiquestTouristes Routiers07:53:16  +  00:04:31=33,216 
11 BELGustaaf DeloorBELBelgium07:53:58  +  00:05:13=33,167 
12 BELAlfons SchepersBELBelgium07:53:58  +  00:05:13=33,167 
13 ITALearco GuerraITAItaly07:54:09  +  00:05:24=33,154 
14 GERHermann BuseDEUGermany-Austria07:54:09  +  00:05:24=33,154 
15 FRACharles PelissierFRAFrance07:54:09  +  00:05:24=33,154 
16 FRAPierre-Marie CloarecTouristes Routiers07:54:09  +  00:05:24=33,154 
17 FRAAndré LeducqFRAFrance07:54:09  +  00:05:24=33,154 
18 FRALouis PeglionTouristes Routiers07:54:09  +  00:05:24=33,154 
19 ITAGiuseppe MartanoTouristes Routiers07:55:40  +  00:06:55=33,048 
20 BELGeorges RonsseBELBelgium07:56:28  +  00:07:43=32,993 
21 GERLudwig GeyerDEUGermany-Austria07:57:41  +  00:08:56=32,909 
22 FRARené Le GrevesFRAFrance07:58:44  +  00:09:59=32,837 
23 AUTMax BullaDEUGermany-Austria07:58:44  +  00:09:59=32,837 
24 FRAAuguste MoncieroTouristes Routiers07:58:44  +  00:09:59=32,837 
25 FRAEugene Le GoffTouristes Routiers07:58:44  +  00:09:59=32,837 
26 FRAGaspard RinaldiTouristes Routiers07:58:44  +  00:09:59=32,837 
27 FRARené BernardTouristes Routiers07:58:44  +  00:09:59=32,837 
28 ITAFabio BattesiniITAItaly07:58:44  +  00:09:59=32,837 
29 BELJoseph MoerenhoutBELBelgium07:58:44  +  00:09:59=32,837 
30 BELJulien VervaeckeTouristes Routiers07:58:44  +  00:09:59=32,837 
31 FRAErnest NeuhardTouristes Routiers07:58:44  +  00:09:59=32,837 
32 ITAAntonio FolcoTouristes Routiers07:58:44  +  00:09:59=32,837 
33 ITARenato ScorticatiTouristes Routiers07:58:44  +  00:09:59=32,837 
34 FRAFernand FayolleTouristes Routiers08:00:34  +  00:11:49=32,711 
35 AUTKarl ThallingerTouristes Routiers08:01:16  +  00:12:31=32,664 
36 ITAAllegro GrandiITAItaly08:02:01  +  00:13:16=32,613 
37 BELAntoine DignefTouristes Routiers08:02:01  +  00:13:16=32,613 
38 SUIWalter BlattmannCHESwitzerland08:03:25  +  00:14:40=32,519 
39 FRALéon LevelTouristes Routiers08:04:03  +  00:15:18=32,476 
40 FRAAntonin MagneFRAFrance08:04:03  +  00:15:18=32,476 
41 FRADécimo BettiniTouristes Routiers08:04:03  +  00:15:18=32,476 
42 FRAFernand CornezTouristes Routiers08:04:03  +  00:15:18=32,476 
43 FRARoger LapebieFRAFrance08:04:03  +  00:15:18=32,476 
44 BELLeopold RoosemontTouristes Routiers08:05:15  +  00:16:30=32,396 
45 FRAJean DriancourtTouristes Routiers08:06:34  +  00:17:49=32,308 
46 BELKamiel De GraeveTouristes Routiers08:07:35  +  00:18:50=32,241 
47 FRAFrancois HaasTouristes Routiers08:08:46  +  00:20:01=32,163 
48 FRAAdrien ButtafocchiTouristes Routiers08:08:46  +  00:20:01=32,163 
49 ESPVicente TruebaTouristes Routiers08:08:46  +  00:20:01=32,163 
50 ITADomenico PiemontesiITAItaly08:11:20  +  00:22:35=31,995 
51 FRARobert BrugéreTouristes Routiers08:11:20  +  00:22:35=31,995 
52 ITAFrancesco CamussoITAItaly08:11:20  +  00:22:35=31,995 
53 FRABenoit FaureTouristes Routiers08:12:15  +  00:23:30=31,935 
54 FRAAndré GaillotTouristes Routiers08:12:52  +  00:24:07=31,895 
55 SUIAlfred BüchiCHESwitzerland08:13:06  +  00:24:21=31,880 
56 SUIRoger PipozCHESwitzerland08:13:06  +  00:24:21=31,880 
57 GERWilly KutschbachDEUGermany-Austria08:13:06  +  00:24:21=31,880 
58 SUIAugust ErneCHESwitzerland08:14:24  +  00:25:39=31,796 
59 ITALuigi GiacobbeITAItaly08:14:24  +  00:25:39=31,796 
60 ITALuigi LuisoniCHESwitzerland08:14:24  +  00:25:39=31,796 
61 SUIGeorges AntenenCHESwitzerland08:16:46  +  00:28:01=31,645 
62 FRALéon Le CalvezFRAFrance08:16:46  +  00:28:01=31,645 
63 FRAPierre PastorelliTouristes Routiers08:16:46  +  00:28:01=31,645 
64 ITAVasco BergamaschiITAItaly08:16:46  +  00:28:01=31,645 
65 ITAGiovanni FirpoTouristes Routiers08:16:46  +  00:28:01=31,645 
66 SUIAlbert BüchiCHESwitzerland08:16:46  +  00:28:01=31,645 
67 SUIAlfred BulaCHESwitzerland08:16:46  +  00:28:01=31,645 
68 FRAEmile IgnatTouristes Routiers08:17:28  +  00:28:43=31,600 
69 ITARafaële Di PacoITAItaly08:18:00  +  00:29:15=31,566 
70 GERKarl AltenburgerDEUGermany-Austria08:22:46  +  00:34:01=31,267 
71 GEROskar ThierbachDEUGermany-Austria08:22:46  +  00:34:01=31,267 
72 FRARoger BisseronTouristes Routiers08:23:53  +  00:35:08=31,198 

Withdrawls: 8
 
Rider
Team
Reason
28  GERHerbert SieronskiDEUGermany-AustriaDid not finish
103  BELEmile JolyTouristes RoutiersDid not finish
112  ITAAmulio ViarengoTouristes RoutiersDid not finish
116  ITAEugenio GestriTouristes RoutiersDid not finish
118  SUIRoger StrebelTouristes RoutiersDid not finish
120  ESPFrancisco CepedaTouristes RoutiersDid not finish
131  FRAEdmond BerengerTouristes RoutiersDid not finish
140  FRAJean-Baptiste IntcegarayTouristes RoutiersDid not finish

Todays birthdays.

1877  Antoine Perrichon
1878  Auguste Berthault
1911  Théo Herckenrath
1924  Carlo Lafranchi
1931  Armand Di Caro
1937  Jean-Claude Lebaube
1951  Giovanni Battaglin
1961  Pascal Jules
1962  Jean-Claude Leclercq
1976  Janek Tombak
1978  Francisco Pérez
1983  Dries Devenyns




Visits: